Regional Weather Roundup
Issued by NWS

Home | Current Version | Previous Version | Text Only | Print | Product List | Glossary Off
Versions: 1 2 3 4 5 6 7 8 9 10 11 12 13 14 15 16 17 18 19 20 21 22 23 24 25 26 27 28 29 30 31 32 33 34 35 36 37 38 39 40 41 42 43 44 45 46 47 48 49 50

000
ASUS43 KMKX 190621
RWRWI

WISCONSIN REGIONAL WEATHER ROUNDUP
NATIONAL WEATHER SERVICE MILWAUKEE/SULLIVAN WI
100 AM CDT SAT APR 19 2014

NOTE: "FAIR" INDICATES FEW OR NO CLOUDS BELOW 12,000 FEET WITH NO
SIGNIFICANT WEATHER AND/OR OBSTRUCTIONS TO VISIBILITY.

WIZ001-002-006>008-014>016-023>028-190700-
NORTHWEST WISCONSIN

CITY           SKY/WX    TMP DP  RH WIND       PRES   REMARKS
SUPERIOR ARPT  FAIR      31  28  86 NE10G17   30.31F WCI  22
6HR MIN TEMP:  31; 6HR MAX TEMP:  33;

ASHLAND        CLOUDY    30  27  88 N5        30.34F WCI  25
6HR MIN TEMP:  28; 6HR MAX TEMP:  34;

HAYWARD        FAIR      39  18  42 SE7       30.28F WCI  34
6HR MIN TEMP:  39; 6HR MAX TEMP:  44;

SIREN          FAIR      40  21  46 E6        30.25S
6HR MIN TEMP:  40; 6HR MAX TEMP:  45;

RICE LAKE      FAIR      40  22  49 E9        30.28F WCI  34
6HR MIN TEMP:  39; 6HR MAX TEMP:  46;

LADYSMITH      FAIR      39  21  48 E10       30.31S WCI  32
6HR MIN TEMP:  39; 6HR MAX TEMP:  46;

EAU CLAIRE     FAIR      42  23  46 E12       30.26F
6HR MIN TEMP:  42; 6HR MAX TEMP:  50;

MENOMONIE      FAIR      41  26  53 E9        30.25F
6HR MIN TEMP:  41; 6HR MAX TEMP:  49;

NEW RICHMOND   FAIR      41  26  53 SE10G17   30.23R
6HR MIN TEMP:  41; 6HR MAX TEMP:  48;

OSCEOLA        FAIR      42  27  56 E17       30.24S
6HR MIN TEMP:  38; 6HR MAX TEMP:  45;

$$

WIZ003>005-009-010-017-018-190700-
NORTH CENTRAL WISCONSIN

CITY           SKY/WX    TMP DP  RH WIND       PRES   REMARKS
WOODRUFF       FAIR      34  25  69 SE7       30.35R WCI  28
6HR MIN TEMP:  33; 6HR MAX TEMP:  44;

RHINELANDER    FAIR      32  22  66 SE8       30.36R WCI  25
6HR MIN TEMP:  28; 6HR MAX TEMP:  39;

EAGLE RIVER    FAIR      31  22  69 SE6       30.36R WCI  25
6HR MIN TEMP:  31; 6HR MAX TEMP:  39;

LAND O LAKES   FAIR      31  24  75 SE6       30.37R WCI  25
6HR MIN TEMP:  27; 6HR MAX TEMP:  38;

PHILLIPS       FAIR      35  22  59 SE7       30.32S WCI  29
6HR MIN TEMP:  35; 6HR MAX TEMP:  42;

TOMAHAWK       FAIR      33  23  64 CALM      30.36R
6HR MIN TEMP:  33; 6HR MAX TEMP:  42;

MEDFORD        FAIR      36  26  68 E9        30.32R WCI  29
6HR MIN TEMP:  36; 6HR MAX TEMP:  44;

MERRILL        FAIR      35  25  68 CALM      30.36S
6HR MIN TEMP:  35; 6HR MAX TEMP:  45;

$$

WIZ029-030-035-036-043>047-190700-
CENTRAL WISCONSIN

CITY           SKY/WX    TMP DP  RH WIND       PRES   REMARKS
WAUSAU         FAIR      35  27  72 E9        30.34R WCI  28
6HR MIN TEMP:  35; 6HR MAX TEMP:  47;

MOSINEE        FAIR      34  30  86 E8        30.35S WCI  27
MARSHFIELD     FAIR      38  28  67 SE12      30.33R WCI  30
6HR MIN TEMP:  37; 6HR MAX TEMP:  49;

STEVENS POINT  FAIR      33  26  76 E7        30.36S WCI  27
6HR MIN TEMP:  33; 6HR MAX TEMP:  47;

WAUPACA        FAIR      36  27  69 E5        30.40R WCI  32
WAUTOMA        FAIR      35  27  73 E6        30.39R WCI  30
6HR MIN TEMP:  35; 6HR MAX TEMP:  53;

WISC RAPIDS    FAIR      36  27  69 SE9       30.37R WCI  29
6HR MIN TEMP:  36; 6HR MAX TEMP:  51;

CAMP DOUGLAS   FAIR      39  31  74 E13       30.33R WCI  31
6HR MIN TEMP:  36; 6HR MAX TEMP:  51;

$$

WIZ011>013-019>022-031-037>040-048>050-190700-
NORTHEAST WISCONSIN

CITY           SKY/WX    TMP DP  RH WIND       PRES   REMARKS
ANTIGO         MOCLDY    32  25  75 SE8       30.37R WCI  25
6HR MIN TEMP:  32; 6HR MAX TEMP:  42;

STURGEON BAY   FAIR      32  25  74 E7        30.42R WCI  26
6HR MIN TEMP:  30; 6HR MAX TEMP:  39;

GREEN BAY      FAIR      33  27  78 E8        30.40S WCI  26
6HR MIN TEMP:  32; 6HR MAX TEMP:  44;

MANITOWOC      FAIR      32  28  85 CALM      30.42S
6HR MIN TEMP:  31; 6HR MAX TEMP:  39;

APPLETON       FAIR      34  27  75 E7        30.40R WCI  28
CLINTONVILLE   FAIR      32  27  80 SE3       30.41R
OSHKOSH        FAIR      35  25  66 E7        30.39R WCI  29
6HR MIN TEMP:  35; 6HR MAX TEMP:  47;

$$

WIZ032>034-041-042-053>061-190700-
SOUTHWEST WISCONSIN

CITY           SKY/WX    TMP DP  RH WIND       PRES   REMARKS
LA CROSSE      FAIR      47  27  45 SE13      30.28R
6HR MIN TEMP:  45; 6HR MAX TEMP:  55;

SPARTA         FAIR      41  30  63 E8        30.30S
6HR MIN TEMP:  39; 6HR MAX TEMP:  53;

VIROQUA        FAIR      42  30  63 SE15      30.27R
6HR MIN TEMP:  42; 6HR MAX TEMP:  53;

BOSCOBEL       FAIR      45  32  60 VRB5      30.31R
6HR MIN TEMP:  44; 6HR MAX TEMP:  58;

PRAIRIE DU CHI FAIR      46  31  57 E10G18    30.29R
6HR MIN TEMP:  46; 6HR MAX TEMP:  57;

PLATTEVILLE    FAIR      38  32  79 E18       30.32R WCI  28
6HR MIN TEMP:  38; 6HR MAX TEMP:  56;

$$

WIZ056-057-062-063-064-067-068-190700-
SOUTH CENTRAL WISCONSIN

CITY           SKY/WX    TMP DP  RH WIND       PRES   REMARKS
BARABOO/DELLS  FAIR      35  27  72 SE9       30.34S WCI  28
6HR MIN TEMP:  35; 6HR MAX TEMP:  52;

LONE ROCK      FAIR      40  31  70 E13       30.34R WCI  32
6HR MIN TEMP:  40; 6HR MAX TEMP:  53;

WATERTOWN      FAIR      33  26  73 E7        30.37R WCI  27
6HR MIN TEMP:  33; 6HR MAX TEMP:  49;

MADISON        FAIR      35  26  69 E9        30.37S WCI  28
6HR MIN TEMP:  35; 6HR MAX TEMP:  52;

MIDDLETON      FAIR      37  27  68 E12       30.36S WCI  29
6HR MIN TEMP:  37; 6HR MAX TEMP:  53;

MONROE         FAIR      34  28  77 E9        30.33S WCI  27
6HR MIN TEMP:  34; 6HR MAX TEMP:  53;

JANESVILLE     FAIR      36  27  69 E9        30.36S WCI  29
$$

WIZ051-052-058>065-066-070>072-190700-
SOUTHEAST WISCONSIN

CITY           SKY/WX    TMP DP  RH WIND       PRES   REMARKS
MILWAUKEE      FAIR      35  28  75 NE8       30.40S WCI  29
6HR MIN TEMP:  34; 6HR MAX TEMP:  36;

WAUKESHA       FAIR      32  27  80 NE7       30.40R WCI  26
MILWAUKEE/TIMM FAIR      34  27  75 NE5       30.41R WCI  30
RACINE         FAIR      36  28  73 NE10      30.40S WCI  28
6HR MIN TEMP:  34; 6HR MAX TEMP:  36;

BURLINGTON     FAIR      32  26  80 E5        30.38R WCI  27
6HR MIN TEMP:  30; 6HR MAX TEMP:  39;

KENOSHA        FAIR      36  27  69 NE12      30.38S WCI  28
6HR MIN TEMP:  33; 6HR MAX TEMP:  38;

FOND DU LAC    FAIR      35  24  64 SE9       30.39R WCI  28
6HR MIN TEMP:  35; 6HR MAX TEMP:  48;

SHEBOYGAN      FAIR      32  27  81 E7        30.40S WCI  26
6HR MIN TEMP:  29; 6HR MAX TEMP:  36;

WEST BEND      FAIR      32  27  80 E5        30.40R WCI  27
JUNEAU         FAIR      34  23  63 E10       30.39R WCI  26
6HR MIN TEMP:  34; 6HR MAX TEMP:  48;

$$

LSZ147-162-190700-
LAKE SUPERIOR

STATION/POSITION TIME  TEMP    WIND        PRES    WAVE
                       AIR SEA DIR/SP/G            HT/PER
                 (UTC) (F)     (DEG/KT/KT) (MB)    (FT/S)
DEVILS ISLAND    0600   32      90/  9/ 10 1029.3F
PORT WING        0500   34      60/  3/  5 1027.4S
SAXON HARBOR     0540             CALM     1027.8S
$$

LMZ867-665-643>646-190700-
LAKE MICHIGAN

STATION/POSITION TIME  TEMP    WIND        PRES    WAVE
                       AIR SEA DIR/SP/G            HT/PER
                 (UTC) (F)     (DEG/KT/KT) (MB)    (FT/S)
NORTHPORT PIER   0500   33      70/  7/  8 1029.8F
SISTER BAY       0509   31      CALM  /  2   N/A
KEWAUNEE LAKESHO 0600   34      80/  6/  8 1030.4R
SHEBOYGAN LAKESH 0600   36      50/  8/  9 1030.6R
PORT WASHINGTON  0500   37      50/  9/ 11 1030.1
MILWAUKEE LAKESH 0600   37      40/  8/ 10   N/A
KENOSHA   LAKESH 0600   38      50/ 14/ 17   N/A
$$

TC  - TEMPERATURE IN CELSIUS
VSB - VISIBILITY IN STATUTE MILES
WCI - WIND CHILL INDEX
HX  - HEAT INDEX




USA.gov is the U.S. government's official web portal to all federal, state and local government web resources and services.